Change the Weather History Date:

Thursday, April 12, 2012

  Actual Average Record
Temperature  
Mean Temperature 57 °F 55 °F  
Max Temperature 64 °F 66 °F 86 °F (2008)
Min Temperature 50 °F 44 °F 39 °F (2007)
Degree Days  
Heating Degree Days 8    
Month to date heating degree days 114  
Since 1 July heating degree days 2229  
Cooling Degree Days 0    
Month to date cooling degree days 0  
Year to date cooling degree days 0  
Growing Degree Days 6 (Base 50)    
Moisture  
Dew Point 45 °F    
Average Humidity 67    
Maximum Humidity 83    
Minimum Humidity 51    
Precipitation  
Precipitation 1.07 in - 1.07 in (2012)
Month to date precipitation 1.51  
Year to date precipitation 10.19  
Since 1 July precipitation 14.48  
Sea Level Pressure  
Sea Level Pressure 30.03 in    
Wind  
Wind Speed 8 mph (South)    
Max Wind Speed 23 mph    
Max Gust Speed 29 mph    
Visibility 9 miles    
Events Rain , Thunderstorm    
T = Trace of Precipitation, MM = Missing Value Source: NWS Daily Summary

Daily Weather History Graph

Daily Weather History Graph

Search for Another Location

Airport or City:

Trip Planner

Search our weather history database for the weather conditions in past years. The results will help you decide how hot, cold, wet, or windy it might be!

Date:

Astronomy

Apr. 12, 2012 Rise Set
Actual Time 6:36 AM PDT 7:39 PM PDT
Civil Twilight 6:09 AM PDT 8:06 PM PDT
Nautical Twilight 5:38 AM PDT 8:38 PM PDT
Astronomical Twilight 5:05 AM PDT 9:11 PM PDT
Moon 1:26 AM PDT (4/12) 11:41 AM PDT (4/12)
Length of Visible Light 13h 56m
Length of Day
13h 03m
Waning Gibbous, 57% of the Moon is Illuminated
Apr 12
Waning Gibbous
Apr 13
Last Quarter
Apr 21
New
Apr 29
First Quarter
May 5
Full

Hourly Weather History & Observations

Time (PDT) Temp. Dew Point Humidity Pressure Visibility Wind Dir Wind Speed Gust Speed Precip Events Conditions
12:53 AM 55.0 °F 43.0 °F 64% 30.05 in 10.0 mi Calm Calm - N/A   Overcast
1:53 AM 54.0 °F 42.1 °F 64% 30.04 in 10.0 mi ESE 3.5 mph - N/A   Overcast
2:09 AM 53.6 °F 42.8 °F 67% 30.04 in 10.0 mi SE 3.5 mph - N/A   Overcast
2:29 AM 53.6 °F 42.8 °F 67% 30.04 in 10.0 mi ESE 4.6 mph - N/A   Overcast
2:53 AM 54.0 °F 43.0 °F 66% 30.03 in 10.0 mi SE 4.6 mph - N/A   Overcast
3:30 AM 55.4 °F 42.8 °F 63% 30.03 in 10.0 mi ESE 5.8 mph - N/A   Overcast
4:53 AM 54.0 °F 45.0 °F 72% 30.02 in 5.0 mi NW 3.5 mph - 0.03 in Rain Rain
5:29 AM 51.8 °F 46.4 °F 82% 30.02 in 2.0 mi Calm Calm - 0.15 in Rain Heavy Rain
5:38 AM 51.8 °F 46.4 °F 82% 30.04 in 2.0 mi WSW 10.4 mph - 0.26 in Rain Heavy Rain
5:46 AM 51.8 °F 46.4 °F 82% 30.05 in 1.5 mi SSW 10.4 mph - 0.38 in Rain Heavy Rain
5:53 AM 51.1 °F 46.0 °F 83% 30.05 in 2.5 mi South 8.1 mph - 0.42 in Rain Heavy Rain
6:03 AM 50.0 °F 44.6 °F 82% 30.04 in 4.0 mi South 5.8 mph - 0.04 in Rain Rain
6:53 AM 51.1 °F 46.0 °F 83% 30.06 in 10.0 mi West 3.5 mph - 0.06 in Rain Light Rain
7:00 AM 51.8 °F 46.4 °F 82% 30.06 in 10.0 mi Calm Calm - 0.00 in   Overcast
7:21 AM 51.8 °F 46.4 °F 82% 30.06 in 10.0 mi North 3.5 mph - 0.00 in Rain Light Rain
7:23 AM 51.8 °F 46.4 °F 82% 30.06 in 10.0 mi NNW 3.5 mph - 0.00 in Rain Light Rain
7:53 AM 52.0 °F 46.9 °F 83% 30.06 in 10.0 mi Calm Calm - 0.00 in   Overcast
8:02 AM 53.6 °F 46.4 °F 77% 30.06 in 10.0 mi Calm Calm - N/A   Overcast
8:12 AM 53.6 °F 46.4 °F 77% 30.06 in 10.0 mi Calm Calm - N/A   Overcast
8:53 AM 54.0 °F 48.0 °F 80% 30.06 in 10.0 mi Calm Calm - N/A   Overcast
9:53 AM 55.9 °F 46.9 °F 72% 30.07 in 10.0 mi South 5.8 mph - N/A   Overcast
10:03 AM 57.2 °F 48.2 °F 72% 30.07 in 10.0 mi SSW 4.6 mph - N/A   Overcast
10:37 AM 57.2 °F 46.4 °F 67% 30.08 in 10.0 mi SW 5.8 mph - N/A   Overcast
10:50 AM 57.2 °F 46.4 °F 67% 30.08 in 10.0 mi SW 5.8 mph - N/A   Overcast
10:53 AM 57.0 °F 46.0 °F 67% 30.08 in 10.0 mi WSW 5.8 mph - N/A   Overcast
11:53 AM 61.0 °F 46.9 °F 60% 30.08 in 10.0 mi SSW 8.1 mph - N/A   Mostly Cloudy
12:53 PM 62.1 °F 48.0 °F 60% 30.07 in 10.0 mi South 9.2 mph 16.1 mph N/A   Scattered Clouds
1:53 PM 62.1 °F 46.0 °F 56% 30.06 in 10.0 mi SSW 9.2 mph - N/A   Scattered Clouds
2:15 PM 62.6 °F 46.4 °F 55% 30.06 in 10.0 mi South 13.8 mph 20.7 mph N/A   Scattered Clouds
2:53 PM 63.0 °F 48.0 °F 58% 30.04 in 10.0 mi SSW 15.0 mph 20.7 mph N/A   Mostly Cloudy
3:53 PM 60.1 °F 43.0 °F 53% 30.01 in 10.0 mi SSW 13.8 mph 25.3 mph N/A   Overcast
4:53 PM 57.0 °F 48.0 °F 72% 30.00 in 10.0 mi SSW 11.5 mph 17.3 mph N/A   Overcast
5:53 PM 57.9 °F 42.1 °F 56% 29.98 in 10.0 mi South 17.3 mph 23.0 mph N/A   Overcast
6:53 PM 57.0 °F 43.0 °F 59% 29.96 in 10.0 mi SSW 10.4 mph - 0.00 in   Overcast
7:53 PM 57.0 °F 42.1 °F 57% 29.94 in 10.0 mi South 9.2 mph - N/A   Overcast
8:53 PM 57.0 °F 43.0 °F 59% 29.93 in 10.0 mi South 11.5 mph - N/A   Overcast
9:53 PM 57.0 °F 41.0 °F 55% 29.91 in 10.0 mi SSE 10.4 mph - N/A   Overcast
10:53 PM 57.0 °F 41.0 °F 55% 29.88 in 10.0 mi SE 6.9 mph - N/A   Overcast
11:53 PM 55.0 °F 45.0 °F 69% 29.87 in 10.0 mi SSE 9.2 mph - 0.03 in Rain , Thunderstorm Light Rain